Location: ??
(34.7707°N, 135.6540°E)
Time: 16:24:00
(UTC+00:00)

Tiangong - Visible Passes

Search period start: 26 September 2021 00:00
Search period end: 06 October 2021 00:00
Orbit: 382 x 385 km, 41.5° (Epoch: 26 September)

Date Brightness Start Highest point End Pass type
(mag) Time Alt. Az. Time Alt. Az. Time Alt. Az.
26 Sep 1.0 19:22:03 68° SSW 19:22:18 75° SSE 19:25:29 10° ENE visible
27 Sep 4.6 18:25:10 12° E 18:25:10 12° E 18:25:25 10° ENE visible
27 Sep 1.9 19:57:23 18° WNW 19:59:16 38° NNW 20:02:17 10° NE visible
28 Sep 2.7 19:00:25 33° NE 19:00:25 33° NE 19:02:25 10° ENE visible
29 Sep 2.4 19:35:37 25° NW 19:36:20 28° NNW 19:39:09 10° NE visible
30 Sep 4.2 18:38:34 15° NE 18:38:34 15° NE 18:39:15 10° NE visible
30 Sep 2.9 20:10:58 10° NW 20:13:34 23° N 20:16:10 10° NE visible
01 Oct 2.9 19:13:43 24° N 19:13:43 24° N 19:16:04 10° NE visible
02 Oct 2.9 19:48:51 15° NW 19:50:38 24° N 19:53:18 10° ENE visible
03 Oct 3.8 18:51:48 17° NE 18:51:48 17° NE 18:53:04 10° NE visible
03 Oct 2.2 20:24:45 10° NW 20:27:45 39° NNE 20:30:46 10° E visible
04 Oct 2.5 19:27:00 26° NNW 19:27:39 29° NNE 19:30:28 10° ENE visible
05 Oct 4.7 18:30:02 11° ENE 18:30:02 11° ENE 18:30:09 10° ENE visible
05 Oct 1.4 20:02:15 16° WNW 20:04:40 63° NNE 20:07:47 10° ESE visible
